Nice, France

4:09 AM CET on December 09, 2016 (GMT +0100)
Nice-Cote d'Azur

Weather History for LFMN - June, 2013

Change the Weather History Date:

Friday, June 28, 2013

  Actual Average Record
Temperature  
Mean Temperature 66 °F -  
Max Temperature 73 °F 79 °F 91 °F (2002)
Min Temperature 60 °F 66 °F 60 °F (1997)
Cooling Degree Days 2    
Growing Degree Days 16 (Base 50)    
Moisture  
Dew Point 54 °F    
Average Humidity 61    
Maximum Humidity 78    
Minimum Humidity 41    
Precipitation  
Precipitation 0.00 in 0.02 in - ()
Sea Level Pressure  
Sea Level Pressure 30.05 in    
Wind  
Wind Speed 8 mph ()    
Max Wind Speed 17 mph    
Max Gust Speed -    
Visibility 6.2 miles    
Events      
Averages and records for this station are not official NWS values.
T = Trace of Precipitation, MM = Missing Value Source: Averaged Metar Reports

Daily Weather History Graph

Daily Weather History Graph

Search for Another Location

Airport or City:

Trip Planner

Search our weather history database for the weather conditions in past years. The results will help you decide how hot, cold, wet, or windy it might be!

Date:

Astronomy

Jun. 28, 2013 Rise Set
Actual Time 5:52 AM CEST 9:16 PM CEST
Civil Twilight 5:16 AM CEST 9:52 PM CEST
Nautical Twilight 4:29 AM CEST 10:39 PM CEST
Astronomical Twilight 3:30 AM CEST 11:38 PM CEST
Moon No Moon Rise 11:53 AM CEST (6/28)
Length of Visible Light 16h 36m
Length of Day
15h 24m
Waning Gibbous, 69% of the Moon is Illuminated
Jun 28
Waning Gibbous
Jun 30
Last Quarter
Jul 8
New
Jul 16
First Quarter
Jul 22
Full

Hourly Weather History & Observations

Time (CEST) Temp. Dew Point Humidity Pressure Visibility Wind Dir Wind Speed Gust Speed Precip Events Conditions
12:00 AM 66.2 °F 51.8 °F 60% 30.06 in 6.2 mi NNW 8.1 mph - N/A   Scattered Clouds
12:30 AM 64.4 °F 51.8 °F 64% 30.06 in 6.2 mi NNW 10.4 mph - N/A   Scattered Clouds
1:00 AM 64.4 °F 51.8 °F 64% 30.04 in 6.2 mi NNW 9.2 mph - N/A   Scattered Clouds
1:30 AM 64.4 °F 50.0 °F 59% 30.04 in 6.2 mi NNW 11.5 mph - N/A   Scattered Clouds
2:00 AM 64 °F 50 °F 51% 30.06 in 31 mi NNW 9.2 mph - -   Partly Cloudy
2:00 AM 64.4 °F 50.0 °F 59% 30.04 in 6.2 mi NNW 10.4 mph - N/A   Scattered Clouds
2:30 AM 62.6 °F 50.0 °F 63% 30.04 in 6.2 mi NW 8.1 mph - N/A   Scattered Clouds
3:00 AM 62.6 °F 50.0 °F 63% 30.04 in 6.2 mi NNW 8.1 mph - N/A   Scattered Clouds
3:30 AM 62.6 °F 50.0 °F 63% 30.04 in 6.2 mi NNW 6.9 mph - N/A   Scattered Clouds
4:00 AM 62.6 °F 50.0 °F 63% 30.04 in 6.2 mi NNW 11.5 mph - N/A   Scattered Clouds
4:30 AM 62.6 °F 50.0 °F 63% 30.04 in 6.2 mi NW 12.7 mph - N/A   Scattered Clouds
5:00 AM 62.6 °F 48.2 °F 59% 30.04 in 6.2 mi NNW 11.5 mph - N/A   Scattered Clouds
5:30 AM 60.8 °F 48.2 °F 63% 30.04 in 6.2 mi NNW 10.4 mph - N/A   Partly Cloudy
6:00 AM 60.8 °F 48.2 °F 63% 30.04 in 6.2 mi NW 11.5 mph - N/A   Partly Cloudy
6:30 AM 60.8 °F 48.2 °F 63% 30.04 in 6.2 mi NW 11.5 mph - N/A   Partly Cloudy
7:00 AM 60.8 °F 48.2 °F 63% 30.04 in 6.2 mi NNW 10.4 mph - N/A   Partly Cloudy
7:30 AM 62.6 °F 48.2 °F 59% 30.04 in 6.2 mi NNW 10.4 mph - N/A   Partly Cloudy
8:00 AM 64 °F 48 °F 46% 30.05 in 31 mi NNW 10.4 mph - -   Scattered Clouds
8:00 AM 64.4 °F 48.2 °F 56% 30.04 in 6.2 mi NNW 10.4 mph - N/A   Partly Cloudy
8:30 AM 66.2 °F 48.2 °F 52% 30.04 in 6.2 mi NNW 10.4 mph - N/A   Partly Cloudy
9:00 AM 68.0 °F 48.2 °F 49% 30.04 in 6.2 mi NNW 8.1 mph - N/A   Partly Cloudy
9:30 AM 69.8 °F 48.2 °F 46% 30.04 in 6.2 mi NW 4.6 mph - N/A   Partly Cloudy
10:00 AM 71.6 °F 46.4 °F 41% 30.04 in 6.2 mi Variable 2.3 mph - N/A   Partly Cloudy
10:42 AM 71.6 °F 51.8 °F 50% 30.04 in 6.2 mi South 9.2 mph - N/A   Partly Cloudy
11:00 AM 69.8 °F 51.8 °F 53% 30.04 in 6.2 mi South 9.2 mph - N/A   Partly Cloudy
11:30 AM 69.8 °F 55.4 °F 60% 30.04 in 6.2 mi South 9.2 mph - N/A   Scattered Clouds
12:00 PM 71.6 °F 57.2 °F 60% 30.04 in 6.2 mi South 10.4 mph - N/A   Mostly Cloudy
12:30 PM 73.4 °F 53.6 °F 50% 30.04 in 6.2 mi South 13.8 mph - N/A   Mostly Cloudy
1:00 PM 73.4 °F 55.4 °F 53% 30.04 in 6.2 mi South 13.8 mph - N/A   Mostly Cloudy
1:30 PM 71.6 °F 55.4 °F 57% 30.04 in 6.2 mi South 13.8 mph - N/A   Mostly Cloudy
2:00 PM 72 °F 57 °F 50% 30.05 in 31 mi South 16.1 mph - -   Partly Cloudy
2:00 PM 71.6 °F 57.2 °F 60% 30.04 in 6.2 mi South 17.3 mph - N/A   Mostly Cloudy
2:30 PM 71.6 °F 57.2 °F 60% 30.04 in 6.2 mi South 13.8 mph - N/A   Mostly Cloudy
3:00 PM 71.6 °F 60.8 °F 69% 30.04 in 6.2 mi South 13.8 mph - N/A   Mostly Cloudy
3:30 PM 71.6 °F 59.0 °F 64% 30.04 in 6.2 mi South 11.5 mph - N/A   Mostly Cloudy
4:00 PM 71.6 °F 57.2 °F 60% 30.04 in 6.2 mi South 10.4 mph - N/A   Mostly Cloudy
4:30 PM 69.8 °F 59.0 °F 68% 30.04 in 6.2 mi South 8.1 mph - N/A   Scattered Clouds
5:00 PM 71.6 °F 57.2 °F 60% 30.04 in 6.2 mi SSE 6.9 mph - N/A   Scattered Clouds
5:40 PM 71.6 °F 57.2 °F 60% 30.04 in 6.2 mi SE 4.6 mph - N/A   Scattered Clouds
6:00 PM 69.8 °F 57.2 °F 64% 30.04 in 6.2 mi SE 5.8 mph - N/A   Scattered Clouds
6:30 PM 71.6 °F 59.0 °F 64% 30.04 in 6.2 mi ESE 6.9 mph - N/A   Scattered Clouds
7:00 PM 69.8 °F 59.0 °F 68% 30.04 in 6.2 mi ESE 8.1 mph - N/A   Scattered Clouds
7:30 PM 69.8 °F 60.8 °F 73% 30.04 in 6.2 mi SE 8.1 mph - N/A   Scattered Clouds
8:00 PM 69 °F 60 °F 64% 30.06 in 31 mi SE 5.8 mph - -   Scattered Clouds
8:00 PM 69.8 °F 59.0 °F 68% 30.04 in 6.2 mi SE 6.9 mph - N/A   Scattered Clouds
8:30 PM 68.0 °F 59.0 °F 73% 30.04 in 6.2 mi SSE 3.5 mph - N/A   Scattered Clouds
9:00 PM 68.0 °F 57.2 °F 68% 30.06 in 6.2 mi Calm Calm - N/A   Scattered Clouds
9:30 PM 68.0 °F 57.2 °F 68% 30.06 in 6.2 mi Variable 1.2 mph - N/A   Scattered Clouds
10:00 PM 68.0 °F 57.2 °F 68% 30.06 in 6.2 mi Calm Calm - N/A   Scattered Clouds
10:30 PM 68.0 °F 57.2 °F 68% 30.06 in 6.2 mi Calm Calm - N/A   Mostly Cloudy
11:08 PM 66.2 °F 59.0 °F 78% 30.09 in 6.2 mi Variable 1.2 mph - N/A   Mostly Cloudy
11:30 PM 66.2 °F 59.0 °F 78% 30.09 in 6.2 mi NW 6.9 mph - N/A   Partly Cloudy